THOR ABLESTAR DEB, 544

Orbit data source: Space-Track

THOR ABLESTAR DEB, 544 is space debris in LEO originally from a launch on Thu, 29 Jun 1961 UTC launched from the Air Force Eastern Test Range (AFETR). Debris objects in space refer to the collection of defunct objects orbiting the Earth. Examples of debris include non-operational satellites, rocket bodies, and fragments generated from explosions, collisions, or faulty payload assembly.

Loading next visibility...
Identifier
544, 1961-015GD
Orbit
LEO
Country
Flag of USUS
Related business
Manufacturer
Unknown
Mission
Spacecraft
Bus & Motor
Unknown
Mass
Unknown
Launch date (UTC)
1961-06-29 (65 years ago)
Launch vehicle
Unknown
Launch site
Air Force Eastern Test Range (AFETR)
Object type
Payload
Rocket body
Debris
Shape & HBR
Unknown shape, 0.1 m
Radar Cross Section
Medium (>0.1 m² and <1 m²)

Expand to show TLE details & history
Last TLE update: 13 hours ago

TLE from 13 hours ago
0 THOR ABLESTAR DEB
1 00544U 61015GD  26246.84742586  .00000147  00000-0  27488-3 0  9994
2 00544  66.8744  39.2049 0189884 212.5936 300.7223 13.56251051212273
Epoch: 2026-09-03T20:20Z
TLE epoch observation values (Epoch: 2026-09-03T20:20:17.594Z)
Latitude
26.14655°
Longitude
-80.88586°
Altitude
981.623 km
Speed
7.398 km/s
True Right ascension
13h 48m 40s
True Declination
26° 00' 54"
Sunlit
Object was in daylight at epoch
Visualization orbit readout
Latitude
Unknown
Longitude
Unknown
Altitude
Unknown
Speed
Unknown
Apparent Right ascension
Unknown
Apparent Declination
Unknown
Sunlit
N/A
Visualization observer readout
Local Sidereal Time
01:16:29
Azimuth
Unknown
Elevation
Unknown
Doppler factor
Unknown
Orbital elements
Apogee altitude
1,188.765 km
Perigee altitude
906.753 km
Semi-major axis
7,425.896 km
Eccentricity
0.01899
Inclination
66.8744°
RAAN
39.2049°
Arg. of periapsis
212.5936°
True anomaly
298.82917°
Mean anomaly
300.7223°
Eccentric anomaly
299.778°
Mean motion
3.39172 °/min
Orbital period
106.14 mins
BSTAR
0.00027488
Loading maneuver chart data...
Computing Atmospheric mass density...

Documentation

Showing up to 5 results
|